Flag for U.S.A. Weather past 2 weeks in Arden-Arcade, California, U.S.A.

Now
81 °F

Sunny.


Feels Like: 80 °F
Forecast: 55 / 82 °F
Wind: 5 mph from Southwest

Location: Mather Field

Current Time: Mar 26, 2015 at 5:19:39 PM

Latest Report: Mar 26, 2015 at 4:55 PM


Visibility: 10 mi

Pressure: 30.07 "Hg

Humidity: 37%

Dew point: 52 °F

Location of Arden-ArcadeLocation

Historic Weather in Arden-Arcade — Graph

°F

Arden-Arcade temperature yesterday

Maximum temperature yesterday: 75 °F (at 3:45 PM)
Minimum temperature yesterday: 48 °F (at 6:45 AM)
Average temperature yesterday: 60 °F

Past Weeks' High & Low Weather Summary

 TemperatureHumidityPressure
High81 °F (Mar 14, 3:52 PM)100% (Mar 11, 11:30 PM)30.29 "Hg (Mar 11, 11:30 PM)
Low39 °F (Mar 18, 6:45 AM)23% (Mar 15, 4:50 PM)29.96 "Hg (Mar 14, 7:46 PM)
Average61 °F68%30.11 "Hg
* Reported Mar 11 3:55 PM — Mar 26 3:55 PM, Arden-Arcade, Weather by CustomWeather, © 2015

Note: Actual official high and low records may vary slightly from our data, if they occured in-between our weather recording intervals... More about our weather records

Advertising

Arden-Arcade weather history for previous 24 hours

 ConditionsComfort  
Time TempWeatherWind HumidityBarometerVisibility
3:55 PM
Thu, Mar 26
81 °FSunny.5 mph39%30.08 "Hg10 mi
2:47 PM77 °FSunny.6 mph44%30.10 "Hg10 mi
1:45 PM77 °FSunny.6 mph47%30.13 "Hg10 mi
12:45 PM75 °FSunny.No wind47%30.16 "Hg10 mi
11:50 AM72 °FSunny.No wind53%30.18 "Hg10 mi
9:45 AM63 °FPassing clouds.3 mph68%30.19 "Hg10 mi
8:45 AM57 °FPassing clouds.No wind77%30.18 "Hg10 mi
7:45 AM52 °FClear.No wind88%30.16 "Hg10 mi
6:45 AM46 °FClear.No wind93%30.14 "Hg10 mi
5:45 AM48 °FClear.No wind94%30.13 "Hg10 mi
3:55 AM50 °FClear.6 mph88%30.12 "Hg10 mi
11:30 PM
Wed, Mar 25
54 °FClear.6 mph82%30.14 "Hg10 mi
10:55 PM55 °FClear.6 mph77%30.15 "Hg10 mi
9:45 PM59 °FPassing clouds.5 mph68%30.15 "Hg10 mi
8:45 PM59 °FPassing clouds.No wind68%30.14 "Hg10 mi
7:45 PM63 °FPassing clouds.6 mph59%30.12 "Hg10 mi
6:45 PM70 °FPassing clouds.7 mph50%30.12 "Hg10 mi
5:45 PM75 °FPassing clouds.No wind34%30.12 "Hg10 mi
Weather by CustomWeather, © 2015

See weather overviewHow to use our weather pages